Akron, CO

9:01 PM MST on December 14, 2017 (GMT -0700)
Akron-Washington County

Weather History for KAKO - November, 2012

Change the Weather History Date:

Monday, November 5, 2012

  Actual Average Record
Temperature  
Mean Temperature 48 °F 43 °F  
Max Temperature 61 °F 55 °F 76 °F (1945)
Min Temperature 34 °F 30 °F 9 °F (1959)
Degree Days  
Heating Degree Days 17    
Month to date heating degree days 74  
Cooling Degree Days 0    
Month to date cooling degree days 0  
Moisture  
Dew Point 32 °F    
Average Humidity 61    
Maximum Humidity 89    
Minimum Humidity 32    
Precipitation  
Precipitation 0.00 in 0.02 in 0.28 in (2015)
Month to date precipitation 0.00 0.10  
Year to date precipitation 7.72 15.86  
Snow  
Snow 0.00 in - - ()
Snow Depth -    
Sea Level Pressure  
Sea Level Pressure 30.15 in    
Wind  
Wind Speed 10 mph (West)    
Max Wind Speed 15 mph    
Max Gust Speed 20 mph    
Visibility 10 miles    
Events      
T = Trace of Precipitation, MM = Missing Value Source: NWS Daily Summary

Daily Weather History Graph

Daily Weather History Graph

Search for Another Location

Airport or City:

Trip Planner

Search our weather history database for the weather conditions in past years. The results will help you decide how hot, cold, wet, or windy it might be!

Date:

Astronomy

Nov. 05, 2012 Rise Set
Actual Time 6:27 AM MST 4:44 PM MST
Civil Twilight 5:58 AM MST 5:13 PM MST
Nautical Twilight 5:26 AM MST 5:45 PM MST
Astronomical Twilight 4:54 AM MST 6:17 PM MST
Moon 10:24 PM MST (11/5) 11:48 AM MST (11/5)
Length of Visible Light 11h 14m
Length of Day
10h 17m
Waning Gibbous, 62% of the Moon is Illuminated
Nov 5
Waning Gibbous
Nov 6
Last Quarter
Nov 13
New
Nov 20
First Quarter
Nov 28
Full

Hourly Weather History & Observations

Time (MST) Temp. Windchill Dew Point Humidity Pressure Visibility Wind Dir Wind Speed Gust Speed Precip Events Conditions
12:53 AM 46.0 °F 41.4 °F 34.0 °F 63% 30.22 in 10.0 mi WNW 9.2 mph - N/A   Overcast
1:53 AM 45.0 °F 40.1 °F 34.0 °F 65% 30.23 in 10.0 mi WNW 9.2 mph - N/A   Overcast
2:53 AM 44.1 °F 39.0 °F 34.0 °F 68% 30.21 in 10.0 mi WNW 9.2 mph - N/A   Overcast
3:53 AM 39.0 °F 32.8 °F 32.0 °F 76% 30.23 in 10.0 mi West 9.2 mph - N/A   Mostly Cloudy
5:53 AM 35.1 °F 27.4 °F 30.9 °F 85% 30.26 in 10.0 mi West 10.4 mph - N/A   Clear
6:53 AM 36.0 °F 28.5 °F 32.0 °F 86% 30.25 in 10.0 mi West 10.4 mph - N/A   Clear
7:53 AM 42.1 °F 35.2 °F 33.1 °F 70% 30.25 in 10.0 mi West 12.7 mph - N/A   Clear
8:53 AM 45.0 °F 38.5 °F 34.0 °F 65% 30.23 in 10.0 mi West 13.8 mph - N/A   Clear
9:53 AM 50.0 °F - 34.0 °F 54% 30.19 in 10.0 mi West 11.5 mph - N/A   Clear
10:53 AM 53.1 °F - 33.1 °F 47% 30.17 in 10.0 mi West 9.2 mph - N/A   Clear
11:53 AM 57.0 °F - 32.0 °F 39% 30.12 in 10.0 mi West 15.0 mph 19.6 mph N/A   Clear
12:53 PM 60.1 °F - 30.9 °F 33% 30.07 in 10.0 mi WNW 6.9 mph - N/A   Clear
1:53 PM 60.1 °F - 30.9 °F 33% 30.04 in 10.0 mi NW 10.4 mph - N/A   Clear
2:53 PM 60.1 °F - 30.9 °F 33% 30.03 in 10.0 mi West 6.9 mph - N/A   Clear
3:53 PM 57.0 °F - 33.1 °F 40% 30.06 in 10.0 mi West 6.9 mph - N/A   Clear
4:53 PM 51.1 °F - 32.0 °F 48% 30.09 in 10.0 mi West 8.1 mph - N/A   Clear
5:53 PM 48.9 °F - 32.0 °F 52% 30.11 in 10.0 mi West 9.2 mph - N/A   Clear
6:53 PM 48.0 °F - 30.9 °F 52% 30.11 in 10.0 mi WSW 10.4 mph - N/A   Clear
7:53 PM 46.0 °F 41.0 °F 30.9 °F 56% 30.11 in 10.0 mi West 10.4 mph - N/A   Clear
8:53 PM 51.1 °F - 30.9 °F 46% 30.10 in 10.0 mi WNW 9.2 mph - N/A   Clear
9:53 PM 43.0 °F 37.7 °F 30.0 °F 60% 30.10 in 10.0 mi West 9.2 mph - N/A   Clear
10:53 PM 45.0 °F 40.6 °F 30.9 °F 58% 30.09 in 10.0 mi West 8.1 mph - N/A   Clear
11:53 PM 44.1 °F 39.5 °F 30.0 °F 58% 30.09 in 10.0 mi WNW 8.1 mph - N/A   Clear